This is the latest recevied weather packets stored in our database for station/object KB1WCR. If no packets are shown the sender has not sent any weather packets the latest 10 day(s).
| Time | Temp. | Humidity | Pressure | Rain* | Wind** | Luminosity | Snow |
|---|---|---|---|---|---|---|---|
| 1777944525 | 11.11° C | 73% | 1007 hPa | 0 mm | - | 0 W/m² | - |
| 1777944223 | 11.11° C | 73% | 1007 hPa | 0 mm | - | 0 W/m² | - |
| 1777943919 | 11.11° C | 71% | 1006.8 hPa | 0 mm | - | 0 W/m² | - |
| 1777943616 | 11.11° C | 70% | 1007 hPa | 0 mm | - | 0 W/m² | - |
| 1777943312 | 11.11° C | 68% | 1006.8 hPa | 0 mm | - | 0 W/m² | - |
| 1777943008 | 11.67° C | 70% | 1006.8 hPa | 0 mm | - | 0 W/m² | - |
| 1777942704 | 11.67° C | 70% | 1006.8 hPa | 0 mm | - | 0 W/m² | - |
| 1777942401 | 11.67° C | 68% | 1006.7 hPa | 0 mm | - | 0 W/m² | - |
| 1777942099 | 11.67° C | 67% | 1006.6 hPa | 0 mm | - | 0 W/m² | - |
| 1777941795 | 12.22° C | 65% | 1006.5 hPa | 0 mm | - | 0 W/m² | - |
| 1777941492 | 12.78° C | 63% | 1006.4 hPa | 0 mm | - | 0 W/m² | - |
| 1777941189 | 13.33° C | 63% | 1006.4 hPa | 0 mm | - | 0 W/m² | - |
| 1777940885 | 13.89° C | 60% | 1006.3 hPa | 0 mm | - | 0 W/m² | - |
| 1777940583 | 14.44° C | 57% | 1006 hPa | 0 mm | - | 0 W/m² | - |
| 1777940281 | 15° C | 55% | 1006.2 hPa | 0 mm | - | 0 W/m² | - |
| 1777939978 | 15.56° C | 53% | 1005.9 hPa | 0 mm | - | 0 W/m² | - |
| 1777939675 | 16.11° C | 51% | 1006 hPa | 0 mm | - | 0 W/m² | - |
| 1777939372 | 16.67° C | 49% | 1005.9 hPa | 0 mm | - | 0 W/m² | - |
| 1777939069 | 17.22° C | 48% | 1006.2 hPa | 0 mm | - | 1 W/m² | - |
| 1777938765 | 17.78° C | 46% | 1005.9 hPa | 0 mm | - | 2 W/m² | - |
| 1777938463 | 17.78° C | 45% | 1005.8 hPa | 0 mm | - | 3 W/m² | - |
| 1777938160 | 17.78° C | 45% | 1005.7 hPa | 0 mm | - | 4 W/m² | - |
| 1777937856 | 18.33° C | 45% | 1005.8 hPa | 0 mm | - | 6 W/m² | - |
| 1777937552 | 18.89° C | 44% | 1005.6 hPa | 0 mm | - | 8 W/m² | - |
| 1777937249 | 18.89° C | 43% | 1005.6 hPa | 0 mm | - | 11 W/m² | - |
* Rain latest hour (hover to see other rain measurements)
** Current wind speed in m/s (hover to see current wind gust speed)